[[{"header":{"parameterUnit":"m.s-1","parameterCategory":1,"la1":30.2991,"la2":30.254,"lo1":-89.0895,"lo2":-89.0444,"dy":0.0017,"dx":0.0017,"nx":28,"ny":28,"refTime":"2023-09-07T03:00:00:Z","depth":0,"parameterNumber":2,"parameterNumberName":"U-component_of_WINDS"},"data":[0,0,0,0,0,0,0,0,0,0,0,0,0,0,0,0,0,0,0,0,0,0,0,0,0,0,0,0,0,0,0,0,0,0,0,0,0,0,0,0,0,0,0,0,0,0,0,0,0,0,0,0,0,0,0,0,0,0,1.2122,1.2124,0,1.2269,1.2271,1.2273,1.2317,1.2317,1.2316,1.2315,1.2471,1.2476,1.2481,0,0,0,0,0,0,0,0,0,0,0,0,0,1.1886,1.189,1.2122,1.2124,1.2126,1.2269,1.2271,1.2273,1.2317,1.2317,1.2316,1.2315,1.247,1.2475,1.2481,0,0,0,0,0,0,0,0,0,0,0,0,0,1.2006,1.1892,1.2122,1.2165,1.217,1.2268,1.2271,1.2273,1.2318,1.2316,1.2315,1.2314,1.2468,1.2475,1.2482,1.2549,0,0,1.2504,1.2507,0,0,0,0,0,0,0,0,1.2,1.2015,1.2157,1.2162,1.2168,1.2274,1.2245,1.2366,1.2318,1.2262,1.2315,1.2314,1.2407,1.2419,1.2449,1.2557,1.2563,1.2505,1.2509,1.2512,1.2514,0,0,0,0,0,0,0,1.1991,1.2009,1.218,1.2159,1.2166,1.2179,1.2195,1.2268,1.2339,1.2267,1.227,1.2287,1.241,1.2442,1.2453,1.2566,1.2505,1.2511,1.2516,1.2518,1.2738,1.274,0,0,0,0,0,0,1.1975,1.2002,1.2176,1.2185,1.2079,1.2184,1.2202,1.2241,1.2338,1.2352,1.2288,1.2288,1.243,1.2445,1.2459,1.2546,1.2512,1.2519,1.2523,1.2737,1.2739,1.274,0,0,0,0,0,0,1.1969,1.199,1.217,1.2094,1.2118,1.219,1.2233,1.2245,1.2277,1.2354,1.2367,1.2307,1.243,1.2449,1.2527,1.2552,1.2522,1.2529,1.2735,1.2738,1.274,1.2719,0,0,0,0,0,0,1.1962,1.1988,1.2012,1.2094,1.2122,1.2233,1.2234,1.2248,1.2289,1.2291,1.2376,1.2389,1.243,1.2516,1.2534,1.2561,1.2535,1.2733,1.2736,1.2739,1.2718,1.272,1.2722,0,0,0,0,0,1.1954,1.2001,1.2013,1.2034,1.2154,1.2234,1.225,1.2295,1.229,1.2317,1.2367,1.2386,1.2546,1.2523,1.2544,1.2574,1.2732,1.2735,1.2739,1.2717,1.272,1.2722,0,0,0,0,0,0,1.1922,1.2013,1.2027,1.2102,1.216,1.2242,1.2277,1.2297,1.2359,1.2359,1.2414,1.2433,1.2507,1.2549,1.2522,1.2646,1.264,1.2648,1.2616,1.2619,1.2622,1.2611,1.2541,0,0,0,0,0,1.1923,1.1978,1.2056,1.2115,1.2143,1.2205,1.2241,1.2271,1.2334,1.2359,1.2415,1.2477,1.2541,1.2582,1.2646,1.2724,1.2744,1.2755,1.2757,1.2759,1.2765,1.2812,1.2818,1.2751,1.2751,1.2751,0,0,1.1927,1.1983,1.2015,1.211,1.2158,1.2217,1.2225,1.2286,1.2331,1.2369,1.2446,1.2489,1.2562,1.2641,1.2678,1.2678,1.2788,1.2763,1.2763,1.2769,1.2816,1.2822,1.2828,1.2754,1.2753,1.2753,0,0,1.1964,1.2011,1.2066,1.2115,1.2187,1.2228,1.2241,1.2321,1.235,1.2428,1.2458,1.2514,1.2622,1.2674,1.2714,1.2772,1.2794,1.2792,1.2804,1.2849,1.2854,1.2859,1.2882,1.2889,1.2798,1.2798,1.2798,0,1.196,1.2048,1.2093,1.2153,1.2195,1.223,1.2288,1.2333,1.2423,1.2453,1.245,1.2588,1.264,1.2732,1.2746,1.2777,1.2796,1.2783,1.2849,1.2855,1.286,1.2882,1.2891,1.2797,1.2797,1.2797,1.2797,0,1.204,1.2101,1.2137,1.2222,1.2268,1.2326,1.2382,1.2424,1.245,1.2492,1.2572,1.2635,1.2713,1.2737,1.2763,1.2833,1.2831,1.2838,1.2834,1.2865,1.2887,1.2896,1.2796,1.2796,1.2796,1.2797,0,0,1.2061,1.2171,1.2183,1.2223,1.2307,1.2356,1.2417,1.2491,1.2527,1.2588,1.2643,1.2734,1.2742,1.2788,1.2821,1.2859,1.2904,1.2862,1.2865,1.2869,1.2988,1.2983,1.2992,1.2918,1.292,1.2921,1.2982,0,1.211,1.2219,1.2262,1.2352,1.241,1.2445,1.2499,1.2557,1.2598,1.2655,1.2702,1.2766,1.277,1.2799,1.2839,1.289,1.2929,1.2886,1.2972,1.2974,1.2953,1.3003,1.2998,1.3053,1.2991,1.2993,1.2994,0,1.2182,1.2243,1.2338,1.2416,1.2442,1.2489,1.2562,1.2615,1.2683,1.271,1.2761,1.2792,1.286,1.285,1.2946,1.2916,1.2954,1.2985,1.2988,1.2999,1.2986,1.3017,1.3071,1.308,1.3007,1.3006,1.3005,0,1.219,1.2296,1.2367,1.24,1.2492,1.2525,1.2565,1.2631,1.2674,1.2738,1.2767,1.2839,1.2878,1.2934,1.2984,1.2972,1.3077,1.307,1.3103,1.3102,1.3125,1.3123,1.3187,1.3146,1.3146,1.3146,1.3146,0,1.2241,1.2298,1.2372,1.2415,1.2481,1.2532,1.2596,1.2639,1.2698,1.2753,1.2788,1.2839,1.2901,1.2961,1.3001,1.3076,1.3093,1.3119,1.3129,1.3116,1.3113,1.3143,1.3141,1.3148,1.3148,1.3147,1.3147,0,1.2261,1.2312,1.2392,1.2473,1.2495,1.254,1.261,1.2656,1.2698,1.2767,1.2786,1.2854,1.2926,1.2981,1.3075,1.3102,1.3182,1.3192,1.3159,1.3164,1.3195,1.3192,1.3281,1.3297,1.3244,1.3244,1.3244,0,1.2291,1.2335,1.2421,1.2459,1.2499,1.256,1.2604,1.2656,1.27,1.2781,1.2817,1.2891,1.2954,1.3068,1.3127,1.3199,1.3213,1.3239,1.3224,1.3211,1.3215,1.3213,1.3218,1.3241,1.3242,1.3242,1.3242,0,1.2339,1.2362,1.2422,1.2493,1.2543,1.2601,1.266,1.269,1.2753,1.2801,1.2874,1.2923,1.3018,1.3093,1.3171,1.3216,1.3241,1.3246,1.3258,1.3246,1.3226,1.3239,1.3166,1.3244,1.3244,1.3244,1.3244,1.3244,1.2366,1.2408,1.2475,1.2542,1.2591,1.2646,1.2693,1.2741,1.2803,1.2884,1.2911,1.2987,1.3057,1.3165,1.3209,1.3271,1.3272,1.3289,1.3293,1.3297,1.3297,1.3214,1.3286,1.3286,1.3286,1.3286,1.3286,0,1.2417,1.2462,1.2523,1.2604,1.2657,1.2674,1.274,1.2784,1.285,1.2912,1.2972,1.3058,1.313,1.3195,1.3271,1.3308,1.3322,1.3327,1.3325,1.3336,1.3291,1.3274,1.3315,1.3315,1.3315,1.3315,1.3315,1.3315,1.245,1.2523,1.2555,1.2653,1.2699,1.2772,1.2809,1.2861,1.291,1.3003,1.3063,1.3104,1.3168,1.3249,1.3317,1.3335,1.3362,1.3364,1.3385,1.3342,1.3339,1.3335,1.3319,1.3369,1.3369,1.3425,1.3425,1.3426]},{"header":{"parameterUnit":"m.s-1","parameterCategory":1,"la1":30.2991,"la2":30.254,"lo1":-89.0895,"lo2":-89.0444,"dy":0.0017,"dx":0.0017,"nx":28,"ny":28,"refTime":"2023-09-07T03:00:00:Z","depth":0,"parameterNumber":3,"parameterNumberName":"V-component_of_WINDS"},"data":[0,0,0,0,0,0,0,0,0,0,0,0,0,0,0,0,0,0,0,0,0,0,0,0,0,0,0,0,0,0,0,0,0,0,0,0,0,0,0,0,0,0,0,0,0,0,0,0,0,0,0,0,0,0,0,0,0,0,0.729,0.7292,0,0.7427,0.7428,0.743,0.7336,0.7331,0.7327,0.7323,0.7465,0.7473,0.748,0,0,0,0,0,0,0,0,0,0,0,0,0,0.6945,0.6952,0.729,0.7292,0.7294,0.7427,0.7428,0.743,0.7336,0.7331,0.7326,0.7321,0.7463,0.7472,0.7481,0,0,0,0,0,0,0,0,0,0,0,0,0,0.709,0.6954,0.729,0.7263,0.7262,0.7426,0.7428,0.7431,0.7338,0.7331,0.7325,0.7319,0.746,0.7471,0.7482,0.7682,0,0,0.7518,0.7523,0,0,0,0,0,0,0,0,0.7082,0.7103,0.7265,0.7265,0.7264,0.7358,0.7359,0.7515,0.7339,0.7309,0.7323,0.7316,0.7435,0.7448,0.7488,0.7688,0.7695,0.7519,0.7526,0.7531,0.7534,0,0,0,0,0,0,0,0.7072,0.7096,0.7344,0.7267,0.7267,0.7243,0.7256,0.7388,0.7406,0.7311,0.7305,0.7322,0.7433,0.7477,0.749,0.7697,0.7519,0.7529,0.7536,0.7541,0.8059,0.8065,0,0,0,0,0,0,0.7064,0.7089,0.734,0.7348,0.7155,0.7254,0.7269,0.7334,0.7404,0.7409,0.7327,0.7317,0.746,0.7477,0.7495,0.7727,0.7531,0.7542,0.7548,0.8052,0.806,0.8068,0,0,0,0,0,0,0.7057,0.7088,0.7334,0.7217,0.7246,0.7267,0.734,0.734,0.7383,0.7416,0.7419,0.7368,0.7456,0.7479,0.7634,0.7731,0.7547,0.7558,0.8044,0.8055,0.8064,0.8196,0,0,0,0,0,0,0.7048,0.7086,0.7163,0.7219,0.7253,0.7473,0.7347,0.7347,0.7403,0.7391,0.7456,0.746,0.7452,0.7617,0.7645,0.7743,0.7567,0.8035,0.8049,0.8061,0.8183,0.821,0.8232,0,0,0,0,0,0.7036,0.7197,0.7168,0.7198,0.735,0.7479,0.7498,0.7485,0.7412,0.7488,0.7508,0.7458,0.7716,0.7634,0.7665,0.7768,0.8029,0.8045,0.806,0.8172,0.8205,0.8232,0,0,0,0,0,0,0.7155,0.7205,0.7172,0.7357,0.7414,0.7462,0.7559,0.7521,0.7601,0.7586,0.7567,0.7582,0.7743,0.7772,0.7679,0.796,0.7861,0.7883,0.7936,0.7967,0.7991,0.7979,0.7576,0,0,0,0,0,0.7202,0.7303,0.7341,0.75,0.753,0.754,0.7595,0.7579,0.7638,0.7662,0.7694,0.7753,0.7846,0.7908,0.7997,0.8187,0.8196,0.8273,0.8297,0.8317,0.8336,0.8431,0.8464,0.8118,0.8118,0.8117,0,0,0.7302,0.7341,0.7407,0.7524,0.7567,0.7669,0.7561,0.7676,0.775,0.768,0.7826,0.7852,0.7916,0.8087,0.8165,0.8116,0.8433,0.8337,0.8352,0.836,0.845,0.8483,0.8512,0.8128,0.8126,0.8125,0,0,0.7535,0.7577,0.771,0.7754,0.7818,0.7822,0.7854,0.7907,0.792,0.8066,0.8013,0.8102,0.8265,0.831,0.8355,0.8597,0.8552,0.8626,0.8754,0.8847,0.8874,0.8898,0.8979,0.9008,0.8645,0.8646,0.8646,0,0.7651,0.7804,0.7785,0.7901,0.7951,0.7889,0.8022,0.8065,0.8156,0.8191,0.8135,0.8333,0.8373,0.855,0.8608,0.8649,0.8681,0.8618,0.8872,0.8896,0.8918,0.8994,0.9025,0.8654,0.8653,0.8652,0.8651,0,0.794,0.8046,0.8146,0.823,0.8293,0.8417,0.8414,0.848,0.8457,0.8466,0.8612,0.8657,0.8749,0.8791,0.8772,0.8964,0.8931,0.8874,0.8773,0.8959,0.903,0.906,0.8666,0.8663,0.866,0.8658,0,0,0.8255,0.8322,0.8359,0.8393,0.8456,0.8537,0.8656,0.8744,0.8797,0.8861,0.8957,0.9093,0.9038,0.9089,0.9074,0.9156,0.9336,0.9088,0.9089,0.9128,0.9543,0.9583,0.9617,0.9307,0.9313,0.9318,0.9536,0,0.8487,0.8693,0.8676,0.887,0.8964,0.8903,0.9006,0.9054,0.9065,0.9145,0.9157,0.9251,0.9175,0.9204,0.9283,0.9298,0.9419,0.9283,0.9394,0.9398,0.9376,0.9656,0.97,0.9904,0.9564,0.9569,0.9573,0,0.8786,0.8854,0.9057,0.9098,0.9137,0.923,0.9305,0.9384,0.9436,0.9437,0.949,0.9459,0.9575,0.9472,0.963,0.9537,0.9581,0.9595,0.9602,0.961,0.9494,0.9666,0.997,0.9998,0.9618,0.9614,0.9611,0,0.8988,0.9132,0.9269,0.9302,0.9355,0.942,0.9446,0.9491,0.9542,0.9608,0.964,0.972,0.9763,0.9824,0.9814,0.9741,0.9972,0.987,0.9973,0.9973,1.0023,1.0019,1.0333,1.0059,1.0058,1.0057,1.0057,0,0.9247,0.9372,0.936,0.9445,0.9581,0.9559,0.9694,0.9711,0.9751,0.9835,0.9789,0.9869,0.9852,0.9932,0.9925,1.0052,1.0073,1.0075,1.0071,1.0077,1.0076,1.0103,1.0087,1.0066,1.0064,1.0062,1.0061,0,0.9496,0.9494,0.9638,0.9674,0.9686,0.9784,0.9815,0.9893,0.9897,1.0004,1.0028,1.0035,1.0125,1.0121,1.0225,1.0219,1.0374,1.0356,1.0356,1.035,1.0451,1.044,1.0791,1.0833,1.0535,1.0538,1.054,0,0.966,0.9754,0.9798,0.985,0.9878,0.9964,1.0014,0.9995,1.0049,1.011,1.018,1.0265,1.0331,1.0477,1.0491,1.0567,1.0548,1.0665,1.0559,1.056,1.0543,1.0535,1.0542,1.0685,1.0689,1.0691,1.0694,0,0.9949,0.994,1.0015,1.0087,1.0147,1.0204,1.0255,1.0301,1.0285,1.0348,1.0438,1.0489,1.0591,1.0674,1.0746,1.077,1.0728,1.0727,1.0753,1.0759,1.0753,1.0751,1.0408,1.0719,1.0716,1.0714,1.0713,1.0712,1.0157,1.0234,1.0274,1.0357,1.0392,1.0439,1.0512,1.0523,1.0597,1.0676,1.066,1.0759,1.0802,1.0893,1.0924,1.0999,1.0957,1.0998,1.1007,1.1016,1.1024,1.0743,1.1013,1.1012,1.1012,1.1011,1.1011,0,1.0438,1.0459,1.0535,1.0605,1.0668,1.0622,1.0674,1.073,1.0817,1.086,1.0924,1.1023,1.1102,1.112,1.1194,1.125,1.1232,1.127,1.1264,1.1269,1.1061,1.1028,1.1283,1.1283,1.1283,1.1283,1.1282,1.1282,1.0592,1.0717,1.0713,1.0854,1.0875,1.097,1.1002,1.1044,1.1077,1.1189,1.1253,1.1263,1.1294,1.1369,1.1437,1.144,1.1467,1.1511,1.1506,1.1312,1.1284,1.1258,1.1226,1.1519,1.1519,1.1707,1.1708,1.171]}]]